Weather History for Harrison, AR

Change the Weather History Date:

Monday, April 8, 2013

  Actual Average Record
Temperature  
Mean Temperature 65 °F 56 °F  
Max Temperature 73 °F 68 °F 89 °F (2011)
Min Temperature 57 °F 44 °F 23 °F (1956)
Degree Days  
Heating Degree Days 0 10  
Month to date heating degree days 92 86  
Since 1 July heating degree days 3645 3766  
Cooling Degree Days 0 1  
Month to date cooling degree days 0 8  
Year to date cooling degree days 7 14  
Growing Degree Days 15 (Base 50)    
Moisture  
Dew Point 56 °F    
Average Humidity 76    
Maximum Humidity 90    
Minimum Humidity 61    
Precipitation  
Precipitation 0.04 in 0.13 in 2.41 in (1942)
Month to date precipitation 0.28 0.98  
Year to date precipitation 9.50 9.97  
Snow  
Snow 0.00 in 0.00 in T in (1899)
Month to date snowfall T 0.3  
Since 1 July snowfall 4.6 11.5  
Snow Depth 0.00 in    
Sea Level Pressure  
Sea Level Pressure 29.79 in    
Wind  
Wind Speed 10 mph (SSE)    
Max Wind Speed 23 mph    
Max Gust Speed 26 mph    
Visibility 10 miles    
Events Rain , Thunderstorm    
T = Trace of Precipitation, MM = Missing Value Source: NWS Daily Summary

Daily Weather History Graph

Daily Weather History Graph

Search for Another Location

Airport:

Trip Planner

Search our weather history database for the weather conditions in past years. The results will help you decide how hot, cold, wet, or windy it might be!

Date:

Astronomy

Apr. 08, 2013 Rise Set
Actual Time 6:48 AM CDT 7:40 PM CDT
Civil Twilight 6:22 AM CDT 8:07 PM CDT
Nautical Twilight 5:51 AM CDT 8:38 PM CDT
Astronomical Twilight 5:19 AM CDT 9:10 PM CDT
Moon 5:36 AM CDT (4/8) 6:17 PM CDT (4/8)
Length of Visible Light 13h 44m
Length of Day
12h 52m
Waning Crescent, 3% of the Moon is Illuminated
Apr 8
Waning Crescent
Apr 10
New
Apr 18
First Quarter
Apr 25
Full
May 2
Last Quarter

Hourly Weather History & Observations

Time (CDT) Temp. Dew Point Humidity Pressure Visibility Wind Dir Wind Speed Gust Speed Precip Events Conditions
12:53 AM 61.0 °F 54.0 °F 78% 29.80 in 10.0 mi ESE 6.9 mph - N/A   Overcast
1:53 AM 61.0 °F 54.0 °F 78% 29.80 in 10.0 mi ESE 4.6 mph - N/A   Overcast
2:53 AM 59.0 °F 54.0 °F 83% 29.77 in 10.0 mi ESE 4.6 mph - N/A   Overcast
3:53 AM 59.0 °F 53.1 °F 81% 29.76 in 10.0 mi East 6.9 mph - N/A   Clear
4:53 AM 60.1 °F 53.1 °F 78% 29.73 in 10.0 mi SSE 12.7 mph - N/A   Scattered Clouds
5:00 AM 60.8 °F 53.6 °F 77% 29.77 in 10.0 mi SSE 11.5 mph - 0.00 in Rain , Thunderstorm Light Rain
5:15 AM 60.8 °F 53.6 °F 77% 29.78 in 10.0 mi SSE 8.1 mph - 0.00 in   Mostly Cloudy
5:53 AM 62.1 °F 54.0 °F 75% 29.76 in 10.0 mi South 6.9 mph - 0.00 in   Mostly Cloudy
6:29 AM 59.0 °F 55.4 °F 88% 29.81 in 9.0 mi SE 3.5 mph - 0.01 in Rain , Thunderstorm Light Rain
6:53 AM 59.0 °F 55.0 °F 87% 29.80 in 10.0 mi SE 4.6 mph - 0.02 in Rain Light Rain
7:03 AM 59.0 °F 55.4 °F 88% 29.82 in 8.0 mi SSE 11.5 mph - 0.01 in Rain , Thunderstorm Rain
7:37 AM 59.0 °F 55.4 °F 88% 29.83 in 10.0 mi SE 12.7 mph - 0.01 in Rain Light Rain
7:53 AM 59.0 °F 55.9 °F 90% 29.80 in 10.0 mi SE 10.4 mph - 0.01 in   Overcast
8:53 AM 61.0 °F 57.9 °F 90% 29.79 in 10.0 mi South 16.1 mph - N/A   Partly Cloudy
9:53 AM 64.9 °F 57.0 °F 75% 29.79 in 10.0 mi South 18.4 mph 26.5 mph 0.01 in   Clear
10:53 AM 66.0 °F 55.9 °F 70% 29.81 in 10.0 mi South 11.5 mph 18.4 mph N/A   Mostly Cloudy
11:53 AM 66.9 °F 55.9 °F 68% 29.83 in 10.0 mi South 9.2 mph - N/A   Overcast
12:53 PM 68.0 °F 57.0 °F 68% 29.81 in 10.0 mi SSE 11.5 mph - N/A   Overcast
1:53 PM 71.1 °F 57.0 °F 61% 29.79 in 10.0 mi South 19.6 mph 25.3 mph N/A   Clear
2:33 PM 68.0 °F 57.2 °F 68% 29.81 in 10.0 mi SSE 13.8 mph 21.9 mph N/A   Mostly Cloudy
2:53 PM 66.9 °F 57.0 °F 70% 29.78 in 10.0 mi South 16.1 mph 21.9 mph N/A   Overcast
3:53 PM 66.0 °F 57.0 °F 73% 29.77 in 10.0 mi South 11.5 mph 19.6 mph N/A   Overcast
4:51 PM 69.8 °F 57.2 °F 64% 29.79 in 10.0 mi SSE 15.0 mph - N/A   Overcast
4:53 PM 69.1 °F 57.0 °F 65% 29.76 in 10.0 mi SSE 15.0 mph - N/A   Overcast
5:53 PM 69.1 °F 57.0 °F 65% 29.76 in 10.0 mi SSE 15.0 mph - N/A   Overcast
6:53 PM 69.1 °F 57.0 °F 65% 29.77 in 10.0 mi SE 8.1 mph - N/A   Overcast
7:53 PM 66.9 °F 57.0 °F 70% 29.77 in 10.0 mi SE 6.9 mph - N/A   Overcast
8:53 PM 64.0 °F 55.9 °F 75% 29.78 in 10.0 mi SE 6.9 mph - N/A   Overcast
9:53 PM 64.9 °F 57.0 °F 75% 29.78 in 10.0 mi ESE 6.9 mph - N/A   Overcast
10:53 PM 63.0 °F 55.9 °F 78% 29.77 in 10.0 mi East 3.5 mph - N/A   Partly Cloudy
11:53 PM 63.0 °F 55.9 °F 78% 29.76 in 10.0 mi Calm Calm - N/A   Clear